Location: Avully
(45.9633°N, 6.0228°E)
Time: 05:28:43
(UTC+00:00)

Cosmos 1674 Rocket - Pass Details

Date: 23 May 2024
Orbit: 598 x 627 km, 82.5° (Epoch: 19 June)

Event Time Altitude Azimuth Distance (km) Brightness Sun altitude
Exits shadow 02:52:37 - 196° (SSW) 2,120 5.8 -9.5°
Reaches altitude 10° 02:52:55 10° 196° (SSW) 1,998 5.6 -9.4°
Maximum altitude 02:57:20 68° 281° (W) 676 3.6 -8.9°
Drops below altitude 10° 03:01:46 10° 4° (N) 2,007 6.9 -8.3°
Sets 03:04:01 0° 7° (N) 2,915 7.8 -8.0°
